DW2959 Murcia ES current weather conditions

sailwx.info

Last reported at 2015-Jul-06 03:48 UTC.
Time now 2015-Jul-06 04:52 UTC

Location: N 38°00' W 001°02'.
View on Google Maps.

See reports from other nearby stations

  
Tides and Currents Weather Stations Pressure Air Temp Water Temp Dewpoint Dewpoint Depression Visibility Wind Speed Wind Dir Waves Ship Positions
date/time (UTC)wind fromknots sea level pressurealtimeterstation pressurevisibilityair tempwater tempwave heightnotes
2015-Jul-06 03:48
2015-Jul-06 03:33
2015-Jul-06 03:18
2015-Jul-06 03:02 096 21.7
2015-Jul-06 02:47 096 21.7
2015-Jul-06 02:32 096 21.1
2015-Jul-06 02:17 096 21.7
2015-Jul-06 02:02 096 21.7
2015-Jul-06 01:47 096 21.7
2015-Jul-06 01:32 096 22.2
2015-Jul-06 01:17 096 22.2
2015-Jul-06 01:02 096 22.2
2015-Jul-06 00:47 096 22.2
2015-Jul-06 00:32 096 22.2
2015-Jul-06 00:17 096 22.8
2015-Jul-06 00:02 096 22.8
2015-Jul-05 23:47 096 0 23.3
2015-Jul-05 23:32 096 23.9
2015-Jul-05 23:17 096 23.9
2015-Jul-05 23:02 096 23.9
2015-Jul-05 22:47 096 24.4
2015-Jul-05 22:32 096 0 25.0
2015-Jul-05 22:17 096 25.0
2015-Jul-05 22:02 096 25.6
2015-Jul-05 21:47 096 25.6
2015-Jul-05 21:32 096 26.1
2015-Jul-05 21:17 096 26.1
2015-Jul-05 21:02 096 26.1
2015-Jul-05 20:47 096 26.7
2015-Jul-05 20:32 096 1 26.7
2015-Jul-05 20:17 105 2 27.2
2015-Jul-05 20:02 099 2 27.2
2015-Jul-05 19:47 100 2 27.2
2015-Jul-05 19:32 098 5 27.8
2015-Jul-05 19:17 103 5 28.3
2015-Jul-05 19:02 099 5 28.3
2015-Jul-05 18:47 094 6 28.9
2015-Jul-05 18:32 112 6 29.4
2015-Jul-05 18:17 111 6 30.0
2015-Jul-05 18:03 079 5 30.0
2015-Jul-05 17:47 092 6 30.6
2015-Jul-05 17:32 075 6 31.1
2015-Jul-05 17:17 072 6 31.1
2015-Jul-05 17:03 065 6 31.7
2015-Jul-05 16:47 119 5 32.2
2015-Jul-05 16:32 069 6 32.2
2015-Jul-05 16:17 080 6 32.8
2015-Jul-05 16:02 098 6 33.3
2015-Jul-05 15:47 071 6 33.3
2015-Jul-05 15:32 110 6 33.3
2015-Jul-05 15:17 093 6 33.9
2015-Jul-05 15:02 072 5 33.9
2015-Jul-05 14:47 074 6 34.4
2015-Jul-05 14:32 136 6 34.4
2015-Jul-05 14:17 100 6 34.4
2015-Jul-05 14:02 087 5 34.4
2015-Jul-05 13:47 094 7 34.4
2015-Jul-05 13:32 120 7 33.9
2015-Jul-05 13:16 086 6 34.4
2015-Jul-05 12:46 087 5 35.0
2015-Jul-05 12:31 087 4 35.0
2015-Jul-05 12:16 091 5 35.0
2015-Jul-05 12:01 117 4 35.0
2015-Jul-05 11:46 101 3 35.0
2015-Jul-05 11:31 091 2 34.4
2015-Jul-05 11:16 074 3 34.4
2015-Jul-05 11:01 062 3 34.4
2015-Jul-05 10:46 103 2 34.4
2015-Jul-05 10:31 090 2 33.9
2015-Jul-05 10:16 071 0 33.3
2015-Jul-05 10:01 074 2 32.2
2015-Jul-05 09:46 329 1 31.7
2015-Jul-05 09:33 031 0 31.7
2015-Jul-05 09:16 011 0 30.6
2015-Jul-05 09:01 261 30.0
2015-Jul-05 08:46 261 0 28.9
2015-Jul-05 08:31 243 2 28.3
2015-Jul-05 08:16 265 2 27.8
2015-Jul-05 08:00 263 2 26.7
2015-Jul-05 07:45 263 3 26.7
2015-Jul-05 07:30 269 1 26.1
2015-Jul-05 07:15 246 1 25.6
2015-Jul-05 07:00 269 0 25.0
2015-Jul-05 06:45 230 0 24.4
2015-Jul-05 06:30 267 0 23.9
2015-Jul-05 06:15 263 0 23.9
2015-Jul-05 06:00 244 0 23.3
2015-Jul-05 05:45 240 1 23.3
2015-Jul-05 05:30
2015-Jul-05 05:15
2015-Jul-05 05:00
2015-Jul-05 04:45
2015-Jul-05 04:15
2015-Jul-05 04:00
2015-Jul-05 03:44
2015-Jul-05 03:29
2015-Jul-05 03:14 242 0 23.3
2015-Jul-05 02:59 257 1 23.3
2015-Jul-05 02:44 254 1 23.3
2015-Jul-05 02:29 246 1 22.8
2015-Jul-05 02:14 222 0 22.8
2015-Jul-05 01:59 223 0 23.3
2015-Jul-05 01:44 140 22.8
2015-Jul-05 01:29 128 22.8
2015-Jul-05 01:14 089 22.2
2015-Jul-05 00:59 089 22.8
2015-Jul-05 00:44 089 22.8
2015-Jul-05 00:29 089 23.3
2015-Jul-05 00:14 089 23.3
2015-Jul-04 23:59 089 23.3
2015-Jul-04 23:44 089 23.3
2015-Jul-04 23:29 089 23.9
2015-Jul-04 23:14 089 23.9
2015-Jul-04 22:59 089 24.4
2015-Jul-04 22:44 089 24.4
2015-Jul-04 22:29 089 25.0
2015-Jul-04 22:14 089 25.0
2015-Jul-04 22:00 089 25.0
2015-Jul-04 21:44 089 25.0
2015-Jul-04 21:29 089 25.6
2015-Jul-04 21:14 088 1 25.6
2015-Jul-04 20:59 085 1 25.6
2015-Jul-04 20:44 086 0 26.1
2015-Jul-04 20:29 086 0 26.1
2015-Jul-04 20:14 086 1 26.1
2015-Jul-04 19:59 107 3 26.7
2015-Jul-04 19:46 088 4 26.7
2015-Jul-04 19:29 101 3 27.2
2015-Jul-04 19:14 101 5 27.2
2015-Jul-04 18:59 119 5 27.8
2015-Jul-04 18:44 077 6 27.8
2015-Jul-04 18:29 069 6 28.3
2015-Jul-04 18:14 102 6 28.9
2015-Jul-04 17:59 106 6 28.9
2015-Jul-04 17:44 105 6 29.4
2015-Jul-04 17:29 109 7 30.0
2015-Jul-04 17:14 073 7 30.0
2015-Jul-04 16:59 109 7 30.6
2015-Jul-04 16:44 088 7 30.6
2015-Jul-04 16:29 092 7 30.6
2015-Jul-04 16:14 134 7 30.6
2015-Jul-04 15:59 130 7 31.1
2015-Jul-04 15:43 055 7 31.1
2015-Jul-04 15:28 128 9 31.1
2015-Jul-04 15:13 117 7 31.7
2015-Jul-04 14:58 116 8 31.7
2015-Jul-04 14:43 107 7 32.2
2015-Jul-04 14:28 080 8 32.2
2015-Jul-04 14:13 103 7 32.2
2015-Jul-04 13:58 111 7 32.2
2015-Jul-04 13:43 126 6 32.8
2015-Jul-04 13:28 122 7 32.8
2015-Jul-04 13:13 082 6 32.8
2015-Jul-04 12:58 105 6 32.8
2015-Jul-04 12:43 077 6 32.8
2015-Jul-04 12:28 098 5 33.3
2015-Jul-04 12:13 126 5 33.3
2015-Jul-04 11:58 123 6 32.8
2015-Jul-04 11:43 101 5 33.3
2015-Jul-04 11:28 039 4 33.3
2015-Jul-04 11:13 105 3 32.8
2015-Jul-04 10:58 118 2 32.8
2015-Jul-04 10:43 103 2 32.2
2015-Jul-04 10:28 075 2 32.2
2015-Jul-04 10:13 086 2 31.7
2015-Jul-04 09:58 059 3 31.7
2015-Jul-04 09:43 041 3 31.1
2015-Jul-04 09:28 034 1 31.1
2015-Jul-04 09:13 040 2 30.0
2015-Jul-04 08:58 043 1 29.4
2015-Jul-04 08:43 263 0 28.3
2015-Jul-04 08:28 262 0 27.8
2015-Jul-04 08:12 265 2 27.2
2015-Jul-04 07:57 267 1 27.2
2015-Jul-04 07:42 242 0 26.7
2015-Jul-04 07:27 243 0 26.1
2015-Jul-04 07:12 263 0 25.6
2015-Jul-04 06:57 269 1 25.6
2015-Jul-04 06:42 232 1 25.0
2015-Jul-04 06:27 219 0 24.4
2015-Jul-04 06:12 245 0 23.9
2015-Jul-04 05:57 261 1 23.3
2015-Jul-04 05:42 229 1 23.3
2015-Jul-04 05:27
2015-Jul-04 05:12
2015-Jul-04 04:57
2015-Jul-04 04:42
2015-Jul-04 04:27
2015-Jul-04 04:12